Year,Month,Day,Hour,Minute,Value (Times are PST for temperature in C)
2012,03,23,00,00,5.30
2012,03,23,00,01,5.30
2012,03,23,00,02,5.30
2012,03,23,00,03,5.30
2012,03,23,00,04,5.30
2012,03,23,00,05,5.30
2012,03,23,00,06,5.30
2012,03,23,00,07,5.30
2012,03,23,00,08,5.30
2012,03,23,00,09,5.30
2012,03,23,00,10,5.30
2012,03,23,00,11,5.30
2012,03,23,00,12,5.30
2012,03,23,00,13,5.30
2012,03,23,00,14,5.30
2012,03,23,00,15,5.30
2012,03,23,00,16,5.30
2012,03,23,00,17,5.30
2012,03,23,00,18,5.30
2012,03,23,00,19,5.30
2012,03,23,00,20,5.30
2012,03,23,00,21,5.30
2012,03,23,00,22,5.30
2012,03,23,00,23,5.30
2012,03,23,00,24,5.30
2012,03,23,00,25,5.30
2012,03,23,00,26,5.30
2012,03,23,00,27,5.30
2012,03,23,00,28,5.30
2012,03,23,00,29,5.30
2012,03,23,00,30,5.30
2012,03,23,00,31,5.30
2012,03,23,00,32,5.30
2012,03,23,00,33,5.30
2012,03,23,00,34,5.30
2012,03,23,00,35,5.30
2012,03,23,00,36,5.30
2012,03,23,00,37,5.30
2012,03,23,00,38,5.30
2012,03,23,00,39,5.30
2012,03,23,00,40,5.30
2012,03,23,00,41,5.40
2012,03,23,00,42,5.40
2012,03,23,00,43,5.40
2012,03,23,00,44,5.40
2012,03,23,00,45,5.40
2012,03,23,00,46,5.30
2012,03,23,00,47,5.30
2012,03,23,00,48,5.30
2012,03,23,00,49,5.30
2012,03,23,00,50,5.30
2012,03,23,00,51,5.30
2012,03,23,00,52,5.30
2012,03,23,00,53,5.30
2012,03,23,00,54,5.30
2012,03,23,00,55,5.30
2012,03,23,00,56,5.20
2012,03,23,00,57,5.20
2012,03,23,00,58,5.20
2012,03,23,00,59,5.10
2012,03,23,01,00,5.10
2012,03,23,01,01,5.10
2012,03,23,01,02,5.10
2012,03,23,01,03,5.10
2012,03,23,01,04,5.10
2012,03,23,01,05,5.10
2012,03,23,01,06,5.10
2012,03,23,01,07,5.10
2012,03,23,01,08,5.00
2012,03,23,01,09,4.90
2012,03,23,01,10,4.90
2012,03,23,01,11,4.90
2012,03,23,01,12,4.90
2012,03,23,01,13,4.90
2012,03,23,01,14,4.90
2012,03,23,01,15,4.90
2012,03,23,01,16,4.90
2012,03,23,01,17,4.90
2012,03,23,01,18,4.90
2012,03,23,01,19,4.90
2012,03,23,01,20,4.90
2012,03,23,01,21,4.90
2012,03,23,01,22,4.90
2012,03,23,01,23,4.90
2012,03,23,01,24,4.90
2012,03,23,01,25,4.90
2012,03,23,01,26,4.90
2012,03,23,01,27,4.90
2012,03,23,01,28,4.90
2012,03,23,01,29,4.90
2012,03,23,01,30,4.90
2012,03,23,01,31,4.90
2012,03,23,01,32,4.90
2012,03,23,01,33,4.90
2012,03,23,01,34,4.90
2012,03,23,01,35,4.90
2012,03,23,01,36,4.90
2012,03,23,01,37,4.90
2012,03,23,01,38,4.90
2012,03,23,01,39,4.90
2012,03,23,01,40,4.90
2012,03,23,01,41,4.90
2012,03,23,01,42,4.90
2012,03,23,01,43,4.90
2012,03,23,01,44,4.90
2012,03,23,01,45,4.90
2012,03,23,01,46,4.90
2012,03,23,01,47,4.90
2012,03,23,01,48,4.90
2012,03,23,01,49,4.90
2012,03,23,01,50,4.90
2012,03,23,01,51,4.90
2012,03,23,01,52,4.90
2012,03,23,01,53,4.90
2012,03,23,01,54,4.90
2012,03,23,01,55,4.90
2012,03,23,01,56,4.90
2012,03,23,01,57,4.90
2012,03,23,01,58,4.90
2012,03,23,01,59,4.90
2012,03,23,02,00,4.90
2012,03,23,02,01,4.90
2012,03,23,02,02,4.90
2012,03,23,02,03,4.90
2012,03,23,02,04,4.80
2012,03,23,02,05,4.80
2012,03,23,02,06,4.80
2012,03,23,02,07,4.80
2012,03,23,02,08,4.80
2012,03,23,02,09,4.80
2012,03,23,02,10,4.80
2012,03,23,02,11,4.80
2012,03,23,02,12,4.80
2012,03,23,02,13,4.80
2012,03,23,02,14,4.80
2012,03,23,02,15,4.90
2012,03,23,02,16,4.80
2012,03,23,02,17,4.80
2012,03,23,02,18,4.80
2012,03,23,02,19,4.80
2012,03,23,02,20,4.70
2012,03,23,02,21,4.70
2012,03,23,02,22,4.70
2012,03,23,02,23,4.70
2012,03,23,02,24,4.70
2012,03,23,02,25,4.70
2012,03,23,02,26,4.60
2012,03,23,02,27,4.60
2012,03,23,02,28,4.60
2012,03,23,02,29,4.60
2012,03,23,02,30,4.60
2012,03,23,02,31,4.60
2012,03,23,02,32,4.60
2012,03,23,02,33,4.60
2012,03,23,02,34,4.60
2012,03,23,02,35,4.60
2012,03,23,02,36,4.60
2012,03,23,02,37,4.60
2012,03,23,02,38,4.60
2012,03,23,02,39,4.60
2012,03,23,02,40,4.60
2012,03,23,02,41,4.60
2012,03,23,02,42,4.60
2012,03,23,02,43,4.60
2012,03,23,02,44,4.60
2012,03,23,02,45,4.60
2012,03,23,02,46,4.60
2012,03,23,02,47,4.60
2012,03,23,02,48,4.60
2012,03,23,02,49,4.60
2012,03,23,02,50,4.60
2012,03,23,02,51,4.60
2012,03,23,02,52,4.60
2012,03,23,02,53,4.60
2012,03,23,02,54,4.60
2012,03,23,02,55,4.60
2012,03,23,02,56,4.60
2012,03,23,02,57,4.60
2012,03,23,02,58,4.50
2012,03,23,02,59,4.50
2012,03,23,03,00,4.50
2012,03,23,03,01,4.40
2012,03,23,03,02,4.40
2012,03,23,03,03,4.40
2012,03,23,03,04,4.40
2012,03,23,03,05,4.40
2012,03,23,03,06,4.40
2012,03,23,03,07,4.40
2012,03,23,03,08,4.40
2012,03,23,03,09,4.50
2012,03,23,03,10,4.50
2012,03,23,03,11,4.60
2012,03,23,03,12,4.60
2012,03,23,03,13,4.60
2012,03,23,03,14,4.60
2012,03,23,03,15,4.70
2012,03,23,03,16,4.70
2012,03,23,03,17,4.70
2012,03,23,03,18,4.70
2012,03,23,03,19,4.70
2012,03,23,03,20,4.60
2012,03,23,03,21,4.60
2012,03,23,03,22,4.60
2012,03,23,03,23,4.60
2012,03,23,03,24,4.60
2012,03,23,03,25,4.60
2012,03,23,03,26,4.50
2012,03,23,03,27,4.50
2012,03,23,03,28,4.40
2012,03,23,03,29,4.30
2012,03,23,03,30,4.20
2012,03,23,03,31,4.20
2012,03,23,03,32,4.10
2012,03,23,03,33,4.10
2012,03,23,03,34,4.00
2012,03,23,03,35,4.00
2012,03,23,03,36,4.00
2012,03,23,03,37,3.90
2012,03,23,03,38,3.90
2012,03,23,03,39,3.90
2012,03,23,03,40,3.90
2012,03,23,03,41,3.90
2012,03,23,03,42,3.80
2012,03,23,03,43,3.80
2012,03,23,03,44,3.80
2012,03,23,03,45,3.80
2012,03,23,03,46,3.80
2012,03,23,03,47,3.70
2012,03,23,03,48,3.70
2012,03,23,03,49,3.60
2012,03,23,03,50,3.60
2012,03,23,03,51,3.50
2012,03,23,03,52,3.50
2012,03,23,03,53,3.40
2012,03,23,03,54,3.30
2012,03,23,03,55,3.30
2012,03,23,03,56,3.30
2012,03,23,03,57,3.30
2012,03,23,03,58,3.20
2012,03,23,03,59,3.20
2012,03,23,04,00,3.20
2012,03,23,04,01,3.10
2012,03,23,04,02,3.10
2012,03,23,04,03,3.10
2012,03,23,04,04,3.10
2012,03,23,04,05,3.10
2012,03,23,04,06,3.00
2012,03,23,04,07,2.90
2012,03,23,04,08,2.90
2012,03,23,04,09,2.90
2012,03,23,04,10,2.90
2012,03,23,04,11,2.90
2012,03,23,04,12,2.90
2012,03,23,04,13,2.90
2012,03,23,04,14,3.00
2012,03,23,04,15,3.10
2012,03,23,04,16,3.10
2012,03,23,04,17,3.20
2012,03,23,04,18,3.20
2012,03,23,04,19,3.20
2012,03,23,04,20,3.30
2012,03,23,04,21,3.20
2012,03,23,04,22,3.20
2012,03,23,04,23,3.10
2012,03,23,04,24,3.10
2012,03,23,04,25,3.10
2012,03,23,04,26,3.20
2012,03,23,04,27,3.20
2012,03,23,04,28,3.20
2012,03,23,04,29,3.20
2012,03,23,04,30,3.30
2012,03,23,04,31,3.30
2012,03,23,04,32,3.30
2012,03,23,04,33,3.30
2012,03,23,04,34,3.30
2012,03,23,04,35,3.30
2012,03,23,04,36,3.30
2012,03,23,04,37,3.30
2012,03,23,04,38,3.20
2012,03,23,04,39,3.20
2012,03,23,04,40,3.20
2012,03,23,04,41,3.10
2012,03,23,04,42,3.10
2012,03,23,04,43,3.10
2012,03,23,04,44,3.10
2012,03,23,04,45,3.10
2012,03,23,04,46,3.10
2012,03,23,04,47,3.10
2012,03,23,04,48,3.10
2012,03,23,04,49,3.10
2012,03,23,04,50,3.10
2012,03,23,04,51,3.10
2012,03,23,04,52,3.10
2012,03,23,04,53,3.10
2012,03,23,04,54,3.10
2012,03,23,04,55,3.10
2012,03,23,04,56,3.10
2012,03,23,04,57,3.10
2012,03,23,04,58,3.10
2012,03,23,04,59,3.10
2012,03,23,05,00,3.10
2012,03,23,05,01,3.10
2012,03,23,05,02,3.10
2012,03,23,05,03,3.10
2012,03,23,05,04,3.10
2012,03,23,05,05,3.10
2012,03,23,05,06,3.10
2012,03,23,05,07,3.10
2012,03,23,05,08,3.10
2012,03,23,05,09,3.00
2012,03,23,05,10,2.90
2012,03,23,05,11,2.90
2012,03,23,05,12,2.90
2012,03,23,05,13,2.90
2012,03,23,05,14,2.90
2012,03,23,05,15,2.90
2012,03,23,05,16,2.90
2012,03,23,05,17,2.90
2012,03,23,05,18,2.80
2012,03,23,05,19,2.70
2012,03,23,05,20,2.50
2012,03,23,05,21,2.50
2012,03,23,05,22,2.40
2012,03,23,05,23,2.30
2012,03,23,05,24,2.20
2012,03,23,05,25,2.20
2012,03,23,05,26,2.20
2012,03,23,05,27,2.20
2012,03,23,05,28,2.20
2012,03,23,05,29,2.20
2012,03,23,05,30,2.20
2012,03,23,05,31,2.20
2012,03,23,05,32,2.10
2012,03,23,05,33,2.10
2012,03,23,05,34,2.00
2012,03,23,05,35,2.00
2012,03,23,05,36,2.00
2012,03,23,05,37,2.00
2012,03,23,05,38,2.10
2012,03,23,05,39,2.20
2012,03,23,05,40,2.30
2012,03,23,05,41,2.40
2012,03,23,05,42,2.50
2012,03,23,05,43,2.50
2012,03,23,05,44,2.50
2012,03,23,05,45,2.60
2012,03,23,05,46,2.60
2012,03,23,05,47,2.60
2012,03,23,05,48,2.50
2012,03,23,05,49,2.50
2012,03,23,05,50,2.50
2012,03,23,05,51,2.50
2012,03,23,05,52,2.50
2012,03,23,05,53,2.40
2012,03,23,05,54,2.40
2012,03,23,05,55,2.40
2012,03,23,05,56,2.30
2012,03,23,05,57,2.30
2012,03,23,05,58,2.30
2012,03,23,05,59,2.20
2012,03,23,06,00,2.20
2012,03,23,06,01,2.10
2012,03,23,06,02,2.00
2012,03,23,06,03,2.10
2012,03,23,06,04,2.20
2012,03,23,06,05,2.20
2012,03,23,06,06,2.30
2012,03,23,06,07,2.40
2012,03,23,06,08,2.40
2012,03,23,06,09,2.40
2012,03,23,06,10,2.40
2012,03,23,06,11,2.40
2012,03,23,06,12,2.40
2012,03,23,06,13,2.40
2012,03,23,06,14,2.40
2012,03,23,06,15,2.50
2012,03,23,06,16,2.50
2012,03,23,06,17,2.50
2012,03,23,06,18,2.50
2012,03,23,06,19,2.50
2012,03,23,06,20,2.50
2012,03,23,06,21,2.50
2012,03,23,06,22,2.50
2012,03,23,06,23,2.50
2012,03,23,06,24,2.50
2012,03,23,06,25,2.50
2012,03,23,06,26,2.50
2012,03,23,06,27,2.50
2012,03,23,06,28,2.40
2012,03,23,06,29,2.40
2012,03,23,06,30,2.30
2012,03,23,06,31,2.20
2012,03,23,06,32,2.10
2012,03,23,06,33,2.00
2012,03,23,06,34,1.90
2012,03,23,06,35,1.80
2012,03,23,06,36,1.70
2012,03,23,06,37,1.70
2012,03,23,06,38,1.60
2012,03,23,06,39,1.60
2012,03,23,06,40,1.50
2012,03,23,06,41,1.50
2012,03,23,06,42,1.50
2012,03,23,06,43,1.50
2012,03,23,06,44,1.50
2012,03,23,06,45,1.50
2012,03,23,06,46,1.50
2012,03,23,06,47,1.50
2012,03,23,06,48,1.60
2012,03,23,06,49,1.60
2012,03,23,06,50,1.80
2012,03,23,06,51,1.90
2012,03,23,06,52,2.00
2012,03,23,06,53,2.10
2012,03,23,06,54,2.20
2012,03,23,06,55,2.20
2012,03,23,06,56,2.20
2012,03,23,06,57,2.30
2012,03,23,06,58,2.30
2012,03,23,06,59,2.30
2012,03,23,07,00,2.30
2012,03,23,07,01,2.30
2012,03,23,07,02,2.30
2012,03,23,07,03,2.30
2012,03,23,07,04,2.30
2012,03,23,07,05,2.30
2012,03,23,07,06,2.30
2012,03,23,07,07,2.30
2012,03,23,07,08,2.30
2012,03,23,07,09,2.30
2012,03,23,07,10,2.30
2012,03,23,07,11,2.30
2012,03,23,07,12,2.30
2012,03,23,07,13,2.30
2012,03,23,07,14,2.30
2012,03,23,07,15,2.30
2012,03,23,07,16,2.30
2012,03,23,07,17,2.30
2012,03,23,07,18,2.20
2012,03,23,07,19,2.20
2012,03,23,07,20,2.20
2012,03,23,07,21,2.20
2012,03,23,07,22,2.20
2012,03,23,07,23,2.20
2012,03,23,07,24,2.20
2012,03,23,07,25,2.20
2012,03,23,07,26,2.20
2012,03,23,07,27,2.10
2012,03,23,07,28,2.10
2012,03,23,07,29,2.10
2012,03,23,07,30,2.10
2012,03,23,07,31,2.20
2012,03,23,07,32,2.20
2012,03,23,07,33,2.20
2012,03,23,07,34,2.20
2012,03,23,07,35,2.20
2012,03,23,07,36,2.10
2012,03,23,07,37,2.10
2012,03,23,07,38,2.10
2012,03,23,07,39,2.10
2012,03,23,07,40,2.10
2012,03,23,07,41,2.20
2012,03,23,07,42,2.20
2012,03,23,07,43,2.20
2012,03,23,07,44,2.20
2012,03,23,07,45,2.20
2012,03,23,07,46,2.20
2012,03,23,07,47,2.30
2012,03,23,07,48,2.30
2012,03,23,07,49,2.30
2012,03,23,07,50,2.40
2012,03,23,07,51,2.40
2012,03,23,07,52,2.50
2012,03,23,07,53,2.50
2012,03,23,07,54,2.60
2012,03,23,07,55,2.60
2012,03,23,07,56,2.60
2012,03,23,07,57,2.70
2012,03,23,07,58,2.70
2012,03,23,07,59,2.70
2012,03,23,08,00,2.70
2012,03,23,08,01,2.70
2012,03,23,08,02,2.80
2012,03,23,08,03,2.80
2012,03,23,08,04,2.80
2012,03,23,08,05,2.80
2012,03,23,08,06,2.80
2012,03,23,08,07,2.80
2012,03,23,08,08,2.80
2012,03,23,08,09,2.80
2012,03,23,08,10,2.80
2012,03,23,08,11,2.80
2012,03,23,08,12,2.80
2012,03,23,08,13,2.80
2012,03,23,08,14,2.70
2012,03,23,08,15,2.70
2012,03,23,08,16,2.70
2012,03,23,08,17,2.70
2012,03,23,08,18,2.70
2012,03,23,08,19,2.70
2012,03,23,08,20,2.70
2012,03,23,08,21,2.70
2012,03,23,08,22,2.70
2012,03,23,08,23,2.70
2012,03,23,08,24,2.80
2012,03,23,08,25,2.80
2012,03,23,08,26,2.90
2012,03,23,08,27,2.90
2012,03,23,08,28,3.00
2012,03,23,08,29,3.10
2012,03,23,08,30,3.10
2012,03,23,08,31,3.10
2012,03,23,08,32,3.20
2012,03,23,08,33,3.20
2012,03,23,08,34,3.30
2012,03,23,08,35,3.30
2012,03,23,08,36,3.30
2012,03,23,08,37,3.30
2012,03,23,08,38,3.40
2012,03,23,08,39,3.40
2012,03,23,08,40,3.50
2012,03,23,08,41,3.50
2012,03,23,08,42,3.60
2012,03,23,08,43,3.60
2012,03,23,08,44,3.70
2012,03,23,08,45,3.80
2012,03,23,08,46,3.80
2012,03,23,08,47,3.80
2012,03,23,08,48,3.90
2012,03,23,08,49,3.90
2012,03,23,08,50,4.00
2012,03,23,08,51,4.00
2012,03,23,08,52,4.00
2012,03,23,08,53,4.10
2012,03,23,08,54,4.10
2012,03,23,08,55,4.10
2012,03,23,08,56,4.20
2012,03,23,08,57,4.20
2012,03,23,08,58,4.20
2012,03,23,08,59,4.20
2012,03,23,09,00,4.20
2012,03,23,09,01,4.20
2012,03,23,09,02,4.30
2012,03,23,09,03,4.30
2012,03,23,09,04,4.30
2012,03,23,09,05,4.30
2012,03,23,09,06,4.30
2012,03,23,09,07,4.30
2012,03,23,09,08,4.30
2012,03,23,09,09,4.40
2012,03,23,09,10,4.40
2012,03,23,09,11,4.40
2012,03,23,09,12,4.50
2012,03,23,09,13,4.50
2012,03,23,09,14,4.60
2012,03,23,09,15,4.60
2012,03,23,09,16,4.60
2012,03,23,09,17,4.70
2012,03,23,09,18,4.70
2012,03,23,09,19,4.70
2012,03,23,09,20,4.70
2012,03,23,09,21,4.70
2012,03,23,09,22,4.80
2012,03,23,09,23,4.80
2012,03,23,09,24,4.90
2012,03,23,09,25,4.90
2012,03,23,09,26,4.90
2012,03,23,09,27,4.90
2012,03,23,09,28,4.90
2012,03,23,09,29,4.90
2012,03,23,09,30,5.00
2012,03,23,09,31,5.10
2012,03,23,09,32,5.10
2012,03,23,09,33,5.00
2012,03,23,09,34,5.00
2012,03,23,09,35,4.90
2012,03,23,09,36,4.90
2012,03,23,09,37,5.00
2012,03,23,09,38,5.10
2012,03,23,09,39,5.10
2012,03,23,09,40,5.10
2012,03,23,09,41,5.10
2012,03,23,09,42,5.10
2012,03,23,09,43,5.10
2012,03,23,09,44,5.10
2012,03,23,09,45,5.20
2012,03,23,09,46,5.30
2012,03,23,09,47,5.30
2012,03,23,09,48,5.30
2012,03,23,09,49,5.30
2012,03,23,09,50,5.30
2012,03,23,09,51,5.30
2012,03,23,09,52,5.40
2012,03,23,09,53,5.40
2012,03,23,09,54,5.50
2012,03,23,09,55,5.60
2012,03,23,09,56,5.60
2012,03,23,09,57,5.70
2012,03,23,09,58,5.70
2012,03,23,09,59,5.70
2012,03,23,10,00,5.70
2012,03,23,10,01,5.70
2012,03,23,10,02,5.70
2012,03,23,10,03,5.80
2012,03,23,10,04,5.80
2012,03,23,10,05,5.90
2012,03,23,10,06,5.90
2012,03,23,10,07,5.90
2012,03,23,10,08,5.90
2012,03,23,10,09,5.90
2012,03,23,10,10,5.90
2012,03,23,10,11,5.90
2012,03,23,10,12,5.90
2012,03,23,10,13,6.00
2012,03,23,10,14,6.00
2012,03,23,10,15,6.00
2012,03,23,10,16,6.00
2012,03,23,10,17,6.10
2012,03,23,10,18,6.10
2012,03,23,10,19,6.10
2012,03,23,10,20,6.20
2012,03,23,10,21,6.20
2012,03,23,10,22,6.20
2012,03,23,10,23,6.20
2012,03,23,10,24,6.30
2012,03,23,10,25,6.30
2012,03,23,10,26,6.30
2012,03,23,10,27,6.30
2012,03,23,10,28,6.40
2012,03,23,10,29,6.40
2012,03,23,10,30,6.40
2012,03,23,10,31,6.40
2012,03,23,10,32,6.40
2012,03,23,10,33,6.40
2012,03,23,10,34,6.40
2012,03,23,10,35,6.40
2012,03,23,10,36,6.40
2012,03,23,10,37,6.40
2012,03,23,10,38,6.40
2012,03,23,10,39,6.40
2012,03,23,10,40,6.40
2012,03,23,10,41,6.40
2012,03,23,10,42,6.40
2012,03,23,10,43,6.40
2012,03,23,10,44,6.40
2012,03,23,10,45,6.40
2012,03,23,10,46,6.40
2012,03,23,10,47,6.40
2012,03,23,10,48,6.40
2012,03,23,10,49,6.50
2012,03,23,10,50,6.60
2012,03,23,10,51,6.60
2012,03,23,10,52,6.60
2012,03,23,10,53,6.60
2012,03,23,10,54,6.70
2012,03,23,10,55,6.70
2012,03,23,10,56,6.70
2012,03,23,10,57,6.70
2012,03,23,10,58,6.70
2012,03,23,10,59,6.70
2012,03,23,11,00,6.70
2012,03,23,11,01,6.80
2012,03,23,11,02,6.80
2012,03,23,11,03,6.90
2012,03,23,11,04,6.90
2012,03,23,11,05,6.90
2012,03,23,11,06,6.80
2012,03,23,11,07,6.80
2012,03,23,11,08,6.80
2012,03,23,11,09,6.80
2012,03,23,11,10,6.80
2012,03,23,11,11,6.80
2012,03,23,11,12,6.80
2012,03,23,11,13,6.80
2012,03,23,11,14,6.90
2012,03,23,11,15,7.00
2012,03,23,11,16,7.10
2012,03,23,11,17,7.20
2012,03,23,11,18,7.30
2012,03,23,11,19,7.30
2012,03,23,11,20,7.40
2012,03,23,11,21,7.50
2012,03,23,11,22,7.60
2012,03,23,11,23,7.50
2012,03,23,11,24,7.50
2012,03,23,11,25,7.60
2012,03,23,11,26,7.70
2012,03,23,11,27,7.60
2012,03,23,11,28,7.50
2012,03,23,11,29,7.50
2012,03,23,11,30,7.50
2012,03,23,11,31,7.60
2012,03,23,11,32,7.60
2012,03,23,11,33,7.60
2012,03,23,11,34,7.50
2012,03,23,11,35,7.50
2012,03,23,11,36,7.50
2012,03,23,11,37,7.60
2012,03,23,11,38,7.60
2012,03,23,11,39,7.70
2012,03,23,11,40,7.80
2012,03,23,11,41,7.80
2012,03,23,11,42,7.80
2012,03,23,11,43,7.80
2012,03,23,11,44,7.80
2012,03,23,11,45,7.80
2012,03,23,11,46,7.90
2012,03,23,11,47,7.90
2012,03,23,11,48,7.90
2012,03,23,11,49,7.90
2012,03,23,11,50,8.00
2012,03,23,11,51,8.00
2012,03,23,11,52,8.00
2012,03,23,11,53,8.00
2012,03,23,11,54,8.00
2012,03,23,11,55,7.90
2012,03,23,11,56,8.00
2012,03,23,11,57,8.00
2012,03,23,11,58,8.00
2012,03,23,11,59,8.00
2012,03,23,12,00,8.00
2012,03,23,12,01,8.00
2012,03,23,12,02,8.00
2012,03,23,12,03,8.00
2012,03,23,12,04,7.90
2012,03,23,12,05,8.00
2012,03,23,12,06,8.00
2012,03,23,12,07,7.90
2012,03,23,12,08,7.90
2012,03,23,12,09,7.90
2012,03,23,12,10,7.90
2012,03,23,12,11,7.90
2012,03,23,12,12,8.00
2012,03,23,12,13,7.90
2012,03,23,12,14,7.90
2012,03,23,12,15,7.90
2012,03,23,12,16,7.90
2012,03,23,12,17,7.90
2012,03,23,12,18,7.80
2012,03,23,12,19,7.80
2012,03,23,12,20,7.80
2012,03,23,12,21,7.80
2012,03,23,12,22,7.90
2012,03,23,12,23,8.00
2012,03,23,12,24,8.00
2012,03,23,12,25,8.10
2012,03,23,12,26,8.20
2012,03,23,12,27,8.20
2012,03,23,12,28,8.20
2012,03,23,12,29,8.30
2012,03,23,12,30,8.40
2012,03,23,12,31,8.50
2012,03,23,12,32,8.50
2012,03,23,12,33,8.70
2012,03,23,12,34,8.70
2012,03,23,12,35,8.80
2012,03,23,12,36,8.80
2012,03,23,12,37,8.80
2012,03,23,12,38,8.90
2012,03,23,12,39,9.00
2012,03,23,12,40,9.10
2012,03,23,12,41,9.10
2012,03,23,12,42,9.00
2012,03,23,12,43,9.00
2012,03,23,12,44,8.90
2012,03,23,12,45,8.90
2012,03,23,12,46,9.00
2012,03,23,12,47,9.00
2012,03,23,12,48,9.10
2012,03,23,12,49,9.10
2012,03,23,12,50,9.10
2012,03,23,12,51,9.10
2012,03,23,12,52,9.20
2012,03,23,12,53,9.20
2012,03,23,12,54,9.40
2012,03,23,12,55,9.40
2012,03,23,12,56,9.50
2012,03,23,12,57,9.50
2012,03,23,12,58,9.60
2012,03,23,12,59,9.70
2012,03,23,13,00,9.80
2012,03,23,13,01,9.80
2012,03,23,13,02,9.70
2012,03,23,13,03,9.70
2012,03,23,13,04,9.60
2012,03,23,13,05,9.50
2012,03,23,13,06,9.30
2012,03,23,13,07,9.20
2012,03,23,13,08,9.20
2012,03,23,13,09,9.20
2012,03,23,13,10,9.20
2012,03,23,13,11,9.00
2012,03,23,13,12,8.90
2012,03,23,13,13,8.90
2012,03,23,13,14,8.90
2012,03,23,13,15,9.00
2012,03,23,13,16,9.00
2012,03,23,13,17,8.90
2012,03,23,13,18,9.00
2012,03,23,13,19,9.10
2012,03,23,13,20,9.20
2012,03,23,13,21,9.30
2012,03,23,13,22,9.40
2012,03,23,13,23,9.60
2012,03,23,13,24,9.70
2012,03,23,13,25,9.70
2012,03,23,13,26,9.70
2012,03,23,13,27,9.80
2012,03,23,13,28,9.70
2012,03,23,13,29,9.60
2012,03,23,13,30,9.40
2012,03,23,13,31,9.30
2012,03,23,13,32,9.20
2012,03,23,13,33,9.20
2012,03,23,13,34,9.20
2012,03,23,13,35,9.20
2012,03,23,13,36,9.20
2012,03,23,13,37,9.30
2012,03,23,13,38,9.40
2012,03,23,13,39,9.50
2012,03,23,13,40,9.60
2012,03,23,13,41,9.60
2012,03,23,13,42,9.70
2012,03,23,13,43,9.70
2012,03,23,13,44,9.70
2012,03,23,13,45,9.70
2012,03,23,13,46,9.50
2012,03,23,13,47,9.50
2012,03,23,13,48,9.50
2012,03,23,13,49,9.50
2012,03,23,13,50,9.70
2012,03,23,13,51,9.80
2012,03,23,13,52,9.90
2012,03,23,13,53,9.90
2012,03,23,13,54,10.00
2012,03,23,13,55,10.10
2012,03,23,13,56,10.10
2012,03,23,13,57,10.10
2012,03,23,13,58,10.10
2012,03,23,13,59,10.20
2012,03,23,14,00,10.30
2012,03,23,14,01,10.40
2012,03,23,14,02,10.40
2012,03,23,14,03,10.40
2012,03,23,14,04,10.40
2012,03,23,14,05,10.40
2012,03,23,14,06,10.40
2012,03,23,14,07,10.40
2012,03,23,14,08,10.30
2012,03,23,14,09,10.20
2012,03,23,14,10,10.20
2012,03,23,14,11,10.10
2012,03,23,14,12,10.10
2012,03,23,14,13,10.10
2012,03,23,14,14,10.20
2012,03,23,14,15,10.30
2012,03,23,14,16,10.40
2012,03,23,14,17,10.60
2012,03,23,14,18,10.60
2012,03,23,14,19,10.60
2012,03,23,14,20,10.60
2012,03,23,14,21,10.50
2012,03,23,14,22,10.30
2012,03,23,14,23,10.20
2012,03,23,14,24,10.20
2012,03,23,14,25,10.30
2012,03,23,14,26,10.30
2012,03,23,14,27,10.40
2012,03,23,14,28,10.40
2012,03,23,14,29,10.50
2012,03,23,14,30,10.60
2012,03,23,14,31,10.80
2012,03,23,14,32,10.90
2012,03,23,14,33,11.00
2012,03,23,14,34,11.10
2012,03,23,14,35,11.20
2012,03,23,14,36,11.20
2012,03,23,14,37,11.20
2012,03,23,14,38,11.20
2012,03,23,14,39,11.10
2012,03,23,14,40,10.90
2012,03,23,14,41,10.80
2012,03,23,14,42,10.70
2012,03,23,14,43,10.60
2012,03,23,14,44,10.60
2012,03,23,14,45,10.60
2012,03,23,14,46,10.60
2012,03,23,14,47,10.70
2012,03,23,14,48,10.70
2012,03,23,14,49,10.90
2012,03,23,14,50,11.00
2012,03,23,14,51,11.10
2012,03,23,14,52,11.20
2012,03,23,14,53,11.30
2012,03,23,14,54,11.40
2012,03,23,14,55,11.40
2012,03,23,14,56,11.20
2012,03,23,14,57,11.00
2012,03,23,14,58,10.70
2012,03,23,14,59,10.60
2012,03,23,15,00,10.60
2012,03,23,15,01,10.60
2012,03,23,15,02,10.60
2012,03,23,15,03,10.60
2012,03,23,15,04,10.70
2012,03,23,15,05,10.90
2012,03,23,15,06,10.90
2012,03,23,15,07,10.90
2012,03,23,15,08,10.90
2012,03,23,15,09,10.90
2012,03,23,15,10,10.80
2012,03,23,15,11,10.70
2012,03,23,15,12,10.60
2012,03,23,15,13,10.50
2012,03,23,15,14,10.40
2012,03,23,15,15,10.40
2012,03,23,15,16,10.30
2012,03,23,15,17,10.20
2012,03,23,15,18,10.20
2012,03,23,15,19,10.20
2012,03,23,15,20,10.30
2012,03,23,15,21,10.30
2012,03,23,15,22,10.40
2012,03,23,15,23,10.40
2012,03,23,15,24,10.60
2012,03,23,15,25,10.60
2012,03,23,15,26,10.70
2012,03,23,15,27,10.70
2012,03,23,15,28,10.70
2012,03,23,15,29,10.80
2012,03,23,15,30,10.90
2012,03,23,15,31,11.00
2012,03,23,15,32,11.10
2012,03,23,15,33,11.20
2012,03,23,15,34,11.20
2012,03,23,15,35,11.10
2012,03,23,15,36,11.00
2012,03,23,15,37,10.80
2012,03,23,15,38,10.70
2012,03,23,15,39,10.60
2012,03,23,15,40,10.60
2012,03,23,15,41,10.70
2012,03,23,15,42,10.70
2012,03,23,15,43,10.80
2012,03,23,15,44,11.00
2012,03,23,15,45,11.10
2012,03,23,15,46,11.10
2012,03,23,15,47,11.10
2012,03,23,15,48,11.10
2012,03,23,15,49,11.10
2012,03,23,15,50,11.10
2012,03,23,15,51,11.10
2012,03,23,15,52,11.10
2012,03,23,15,53,11.10
2012,03,23,15,54,11.10
2012,03,23,15,55,11.10
2012,03,23,15,56,11.10
2012,03,23,15,57,11.10
2012,03,23,15,58,11.10
2012,03,23,15,59,11.10
2012,03,23,16,00,11.10
2012,03,23,16,01,11.10
2012,03,23,16,02,11.10
2012,03,23,16,03,11.10
2012,03,23,16,04,11.10
2012,03,23,16,05,11.10
2012,03,23,16,06,11.10
2012,03,23,16,07,11.10
2012,03,23,16,08,11.10
2012,03,23,16,09,11.10
2012,03,23,16,10,11.10
2012,03,23,16,11,11.10
2012,03,23,16,12,11.10
2012,03,23,16,13,11.10
2012,03,23,16,14,11.10
2012,03,23,16,15,11.10
2012,03,23,16,16,11.10
2012,03,23,16,17,11.10
2012,03,23,16,18,11.10
2012,03,23,16,19,11.20
2012,03,23,16,20,11.20
2012,03,23,16,21,11.10
2012,03,23,16,22,10.90
2012,03,23,16,23,10.90
2012,03,23,16,24,10.90
2012,03,23,16,25,10.90
2012,03,23,16,26,10.90
2012,03,23,16,27,10.90
2012,03,23,16,28,10.90
2012,03,23,16,29,10.90
2012,03,23,16,30,10.90
2012,03,23,16,31,10.90
2012,03,23,16,32,10.90
2012,03,23,16,33,11.00
2012,03,23,16,34,11.10
2012,03,23,16,35,11.10
2012,03,23,16,36,11.10
2012,03,23,16,37,11.10
2012,03,23,16,38,11.20
2012,03,23,16,39,11.20
2012,03,23,16,40,11.20
2012,03,23,16,41,11.20
2012,03,23,16,42,11.20
2012,03,23,16,43,11.20
2012,03,23,16,44,11.30
2012,03,23,16,45,11.30
2012,03,23,16,46,11.30
2012,03,23,16,47,11.40
2012,03,23,16,48,11.30
2012,03,23,16,49,11.40
2012,03,23,16,50,11.40
2012,03,23,16,51,11.40
2012,03,23,16,52,11.40
2012,03,23,16,53,11.40
2012,03,23,16,54,11.50
2012,03,23,16,55,11.60
2012,03,23,16,56,11.60
2012,03,23,16,57,11.50
2012,03,23,16,58,11.40
2012,03,23,16,59,11.40
2012,03,23,17,00,11.40
2012,03,23,17,01,11.30
2012,03,23,17,02,11.30
2012,03,23,17,03,11.30
2012,03,23,17,04,11.20
2012,03,23,17,05,11.20
2012,03,23,17,06,11.20
2012,03,23,17,07,11.20
2012,03,23,17,08,11.10
2012,03,23,17,09,11.10
2012,03,23,17,10,11.20
2012,03,23,17,11,11.20
2012,03,23,17,12,11.30
2012,03,23,17,13,11.30
2012,03,23,17,14,11.40
2012,03,23,17,15,11.40
2012,03,23,17,16,11.40
2012,03,23,17,17,11.40
2012,03,23,17,18,11.30
2012,03,23,17,19,11.20
2012,03,23,17,20,11.20
2012,03,23,17,21,11.20
2012,03,23,17,22,11.20
2012,03,23,17,23,11.30
2012,03,23,17,24,11.30
2012,03,23,17,25,11.20
2012,03,23,17,26,11.10
2012,03,23,17,27,11.10
2012,03,23,17,28,11.10
2012,03,23,17,29,11.10
2012,03,23,17,30,11.10
2012,03,23,17,31,11.10
2012,03,23,17,32,11.10
2012,03,23,17,33,11.10
2012,03,23,17,34,11.10
2012,03,23,17,35,11.10
2012,03,23,17,36,11.20
2012,03,23,17,37,11.20
2012,03,23,17,38,11.30
2012,03,23,17,39,11.30
2012,03,23,17,40,11.40
2012,03,23,17,41,11.40
2012,03,23,17,42,11.40
2012,03,23,17,43,11.40
2012,03,23,17,44,11.30
2012,03,23,17,45,11.20
2012,03,23,17,46,11.10
2012,03,23,17,47,11.10
2012,03,23,17,48,11.10
2012,03,23,17,49,11.10
2012,03,23,17,50,11.20
2012,03,23,17,51,11.20
2012,03,23,17,52,11.10
2012,03,23,17,53,11.00
2012,03,23,17,54,10.90
2012,03,23,17,55,10.90